TimeAKST,TemperatureF,Dew PointF,Humidity,Sea Level PressureIn,VisibilityMPH,Wind Direction,Wind SpeedMPH,Gust SpeedMPH,PrecipitationIn,Events,Conditions,WindDirDegrees,DateUTC
12:16 AM,28.4,23.0,80,30.28,1.8,South,3.5,-,N/A,,Clear,170,2012-11-09 09:16:00
12:36 AM,28.4,24.8,86,30.28,1.2,SE,4.6,-,N/A,,Clear,130,2012-11-09 09:36:00
12:56 AM,28.4,24.8,86,30.27,2.5,SE,4.6,-,N/A,,Clear,130,2012-11-09 09:56:00
1:16 AM,26.6,21.2,80,30.27,2.0,SSE,4.6,-,N/A,,Clear,160,2012-11-09 10:16:00
1:36 AM,26.6,21.2,80,30.27,2.0,SE,4.6,-,N/A,,Clear,140,2012-11-09 10:36:00
1:56 AM,28.4,23.0,80,30.27,1.5,SE,3.5,-,N/A,,Clear,140,2012-11-09 10:56:00
2:16 AM,28.4,23.0,80,30.27,2.5,SSE,3.5,-,N/A,,Clear,150,2012-11-09 11:16:00
2:36 AM,26.6,21.2,80,30.27,10.0,SSE,3.5,-,N/A,,Clear,150,2012-11-09 11:36:00
2:56 AM,26.6,21.2,80,30.27,3.0,SE,3.5,-,N/A,,Clear,140,2012-11-09 11:56:00
3:16 AM,26.6,23.0,86,30.26,10.0,Calm,Calm,-,N/A,,Clear,0,2012-11-09 12:16:00
3:36 AM,26.6,21.2,80,30.26,10.0,SSE,4.6,-,N/A,,Clear,150,2012-11-09 12:36:00
3:56 AM,26.6,21.2,80,30.26,5.0,SSE,4.6,-,N/A,,Clear,150,2012-11-09 12:56:00
4:16 AM,26.6,21.2,80,30.26,2.5,SSE,3.5,-,N/A,,Clear,150,2012-11-09 13:16:00
4:36 AM,26.6,21.2,80,30.26,1.8,SE,5.8,-,N/A,,Clear,140,2012-11-09 13:36:00
4:56 AM,26.6,21.2,80,30.26,1.5,SE,4.6,-,N/A,,Clear,140,2012-11-09 13:56:00
5:16 AM,26.6,19.4,74,30.26,3.0,SE,3.5,-,N/A,,Clear,140,2012-11-09 14:16:00
5:36 AM,26.6,21.2,80,30.26,3.0,SE,4.6,-,N/A,,Clear,130,2012-11-09 14:36:00
5:56 AM,26.6,19.4,74,30.25,10.0,SSE,3.5,-,N/A,,Clear,160,2012-11-09 14:56:00
6:16 AM,26.6,21.2,80,30.25,10.0,Calm,Calm,-,N/A,,Clear,0,2012-11-09 15:16:00
6:36 AM,26.6,19.4,74,30.25,10.0,Calm,Calm,-,N/A,,Clear,0,2012-11-09 15:36:00
6:56 AM,26.6,21.2,80,30.25,10.0,SSE,3.5,-,N/A,,Clear,150,2012-11-09 15:56:00
7:16 AM,26.6,21.2,80,30.25,10.0,SSE,3.5,-,N/A,,Clear,150,2012-11-09 16:16:00
7:36 AM,26.6,21.2,80,30.25,10.0,SE,3.5,-,N/A,,Clear,130,2012-11-09 16:36:00
7:56 AM,24.8,19.4,80,30.25,10.0,Calm,Calm,-,N/A,,Clear,0,2012-11-09 16:56:00
8:16 AM,26.6,21.2,80,30.25,10.0,Calm,Calm,-,N/A,,Clear,0,2012-11-09 17:16:00
8:36 AM,26.6,21.2,80,30.24,10.0,SSE,4.6,-,N/A,,Clear,160,2012-11-09 17:36:00
8:56 AM,26.6,21.2,80,30.24,10.0,Calm,Calm,-,N/A,,Clear,0,2012-11-09 17:56:00
9:16 AM,28.4,23.0,80,30.23,10.0,Calm,Calm,-,N/A,,Clear,0,2012-11-09 18:16:00
9:36 AM,28.4,23.0,80,30.24,10.0,Calm,Calm,-,N/A,,Clear,0,2012-11-09 18:36:00
9:56 AM,30.2,24.8,80,30.23,10.0,Calm,Calm,-,N/A,,Clear,0,2012-11-09 18:56:00
10:16 AM,30.2,23.0,75,30.24,10.0,SSE,3.5,-,N/A,,Clear,160,2012-11-09 19:16:00
10:36 AM,30.2,23.0,75,30.24,10.0,Calm,Calm,-,N/A,,Clear,0,2012-11-09 19:36:00
10:56 AM,32.0,23.0,69,30.24,10.0,Calm,Calm,-,N/A,,Clear,0,2012-11-09 19:56:00
11:16 AM,32.0,23.0,69,30.24,10.0,Calm,Calm,-,N/A,,Clear,0,2012-11-09 20:16:00
11:36 AM,32.0,21.2,64,30.24,10.0,SSE,4.6,-,N/A,,Clear,150,2012-11-09 20:36:00
11:56 AM,33.8,23.0,65,30.23,10.0,East,4.6,-,N/A,,Clear,80,2012-11-09 20:56:00
12:16 PM,32.0,21.2,64,30.22,10.0,Calm,Calm,-,N/A,,Clear,0,2012-11-09 21:16:00
12:36 PM,33.8,21.2,60,30.22,10.0,Calm,Calm,-,N/A,,Clear,0,2012-11-09 21:36:00
12:56 PM,33.8,21.2,60,30.21,10.0,Calm,Calm,-,N/A,,Clear,0,2012-11-09 21:56:00
1:16 PM,33.8,21.2,60,30.20,10.0,Calm,Calm,-,N/A,,Clear,0,2012-11-09 22:16:00
1:36 PM,33.8,21.2,60,30.21,10.0,NW,5.8,-,N/A,,Clear,320,2012-11-09 22:36:00
1:56 PM,33.8,21.2,60,30.22,10.0,NW,5.8,-,N/A,,Clear,320,2012-11-09 22:56:00
2:16 PM,33.8,19.4,56,30.22,10.0,NW,5.8,-,N/A,,Clear,310,2012-11-09 23:16:00
2:36 PM,33.8,19.4,56,30.22,10.0,Calm,Calm,-,N/A,,Clear,0,2012-11-09 23:36:00
2:56 PM,33.8,19.4,56,30.20,10.0,Calm,Calm,-,N/A,,Clear,0,2012-11-09 23:56:00
3:16 PM,30.2,21.2,69,30.19,10.0,Calm,Calm,-,N/A,,Clear,0,2012-11-10 00:16:00
3:36 PM,30.2,19.4,64,30.19,10.0,Calm,Calm,-,N/A,,Clear,0,2012-11-10 00:36:00
3:56 PM,30.2,17.6,60,30.18,10.0,Calm,Calm,-,N/A,,Clear,0,2012-11-10 00:56:00
4:16 PM,32.0,17.6,55,30.18,10.0,SSE,3.5,-,N/A,,Clear,150,2012-11-10 01:16:00
4:36 PM,32.0,19.4,60,30.18,10.0,East,3.5,-,N/A,,Clear,90,2012-11-10 01:36:00
4:56 PM,32.0,19.4,60,30.17,10.0,East,5.8,-,N/A,,Clear,100,2012-11-10 01:56:00
5:16 PM,32.0,19.4,60,30.17,10.0,ESE,5.8,-,N/A,,Clear,110,2012-11-10 02:16:00
5:36 PM,30.2,19.4,64,30.17,10.0,ESE,8.1,-,N/A,,Clear,110,2012-11-10 02:36:00
5:56 PM,30.2,19.4,64,30.17,10.0,ESE,6.9,-,N/A,,Clear,120,2012-11-10 02:56:00
6:16 PM,30.2,19.4,64,30.16,10.0,East,10.4,-,N/A,,Clear,80,2012-11-10 03:16:00
6:36 PM,30.2,19.4,64,30.16,10.0,East,10.4,-,N/A,,Clear,90,2012-11-10 03:36:00
6:56 PM,30.2,19.4,64,30.15,10.0,East,9.2,-,N/A,,Clear,90,2012-11-10 03:56:00
7:16 PM,30.2,19.4,64,30.15,10.0,East,10.4,-,N/A,,Clear,80,2012-11-10 04:16:00
7:36 PM,30.2,19.4,64,30.15,10.0,East,8.1,-,N/A,,Clear,90,2012-11-10 04:36:00
7:56 PM,30.2,17.6,60,30.15,10.0,ENE,9.2,-,N/A,,Clear,70,2012-11-10 04:56:00
8:16 PM,30.2,17.6,60,30.14,10.0,ENE,9.2,-,N/A,,Clear,60,2012-11-10 05:16:00
8:36 PM,30.2,19.4,64,30.14,10.0,East,12.7,17.3,N/A,,Clear,100,2012-11-10 05:36:00
8:56 PM,30.2,17.6,60,30.14,10.0,East,9.2,-,N/A,,Clear,100,2012-11-10 05:56:00
9:16 PM,30.2,17.6,60,30.14,10.0,East,10.4,-,N/A,,Clear,80,2012-11-10 06:16:00
9:36 PM,30.2,17.6,60,30.15,10.0,East,6.9,-,N/A,,Clear,80,2012-11-10 06:36:00
9:56 PM,30.2,15.8,55,30.15,10.0,ENE,4.6,-,N/A,,Clear,70,2012-11-10 06:56:00
10:16 PM,28.4,17.6,64,30.14,10.0,ENE,9.2,-,N/A,,Clear,60,2012-11-10 07:16:00
10:36 PM,28.4,19.4,69,30.14,10.0,East,11.5,-,N/A,,Clear,100,2012-11-10 07:36:00
10:56 PM,28.4,17.6,64,30.15,10.0,ESE,11.5,-,N/A,,Clear,110,2012-11-10 07:56:00
11:16 PM,28.4,17.6,64,30.14,10.0,East,8.1,-,N/A,,Clear,80,2012-11-10 08:16:00
11:36 PM,28.4,15.8,59,30.15,10.0,East,8.1,-,N/A,,Clear,100,2012-11-10 08:36:00
11:56 PM,28.4,17.6,64,30.14,10.0,East,8.1,-,N/A,,Clear,90,2012-11-10 08:56:00